CDT,Max TemperatureF,Mean TemperatureF,Min TemperatureF,Max Dew PointF,MeanDew PointF,Min DewpointF,Max Humidity, Mean Humidity, Min Humidity, Max Sea Level PressureIn, Mean Sea Level PressureIn, Min Sea Level PressureIn, Max VisibilityMiles, Mean VisibilityMiles, Min VisibilityMiles, Max Wind SpeedMPH, Mean Wind SpeedMPH, Max Gust SpeedMPH,PrecipitationIn, CloudCover, Events, WindDirDegrees
2012-10-1,78,66,55,57,53,50,94,66,36,30.03,29.96,29.92,10,10,7,24,7,28,0.00,0,,354
2012-10-2,75,64,53,52,44,34,88,54,22,30.09,30.02,29.95,10,10,10,14,8,18,0.00,0,,353
2012-10-3,82,68,53,54,48,45,82,53,28,29.99,29.94,29.88,10,10,7,23,9,28,0.00,0,,143
2012-10-4,68,64,59,57,48,43,82,61,48,30.21,30.12,29.96,10,10,5,26,14,34,0.00,4,,47
2012-10-5,64,58,51,46,41,36,63,54,45,30.23,30.18,30.12,10,10,10,16,12,24,0.00,5,,41
2012-10-6,50,47,44,36,32,28,62,53,43,30.36,30.28,30.24,10,10,10,18,14,25,0.00,5,,45
2012-10-7,51,46,41,32,30,27,66,55,38,30.38,30.32,30.24,10,10,10,13,7,,0.00,1,,46
2012-10-8,64,48,33,39,33,30,93,59,30,30.25,30.15,30.01,10,10,10,20,5,25,0.00,0,,179
2012-10-9,82,65,48,52,44,37,87,55,20,30.08,29.93,29.85,10,10,10,18,11,23,0.00,0,,136
2012-10-10,64,58,51,48,42,34,67,55,44,30.27,30.18,30.09,10,10,10,25,15,31,0.00,5,,68
2012-10-11,80,70,60,64,59,50,88,70,54,30.16,30.10,30.03,10,10,5,20,8,25,0.00,5,,176
2012-10-12,87,76,66,68,65,61,94,73,43,30.18,30.09,30.03,10,9,4,20,9,25,0.00,3,,148
2012-10-13,86,74,60,68,54,34,83,56,18,30.03,29.88,29.73,10,10,2,28,17,34,0.43,3,Rain-Thunderstorm,204
2012-10-14,80,66,53,46,41,36,72,43,20,30.17,30.07,29.90,10,10,2,21,9,28,0.00,0,,333
2012-10-15,86,66,46,48,42,37,87,46,19,30.16,30.05,29.93,10,9,0,17,5,20,0.00,0,,193
2012-10-16,89,73,57,55,49,41,72,46,19,29.93,29.72,29.55,10,10,10,18,12,23,0.00,0,,178
2012-10-17,78,68,57,55,37,23,73,35,17,29.90,29.69,29.47,10,10,10,26,14,34,0.00,0,,343
2012-10-18,69,55,41,30,26,21,61,35,16,30.10,30.02,29.91,10,10,10,16,9,22,0.00,0,,340
2012-10-19,77,59,41,36,29,21,65,38,14,30.09,29.98,29.87,10,10,7,13,7,21,0.00,0,,288
2012-10-20,84,67,50,54,41,36,68,45,19,29.87,29.77,29.69,10,10,10,12,7,16,0.00,0,,138
2012-10-21,96,78,59,63,53,41,94,54,15,29.79,29.74,29.69,10,9,7,26,11,32,0.00,0,,169
2012-10-22,82,74,66,63,60,54,88,63,39,29.97,29.87,29.80,10,10,7,29,14,36,0.00,0,Rain-Thunderstorm,179
2012-10-23,89,74,60,64,62,59,94,66,36,29.90,29.85,29.79,10,9,4,23,12,28,0.00,0,,175
2012-10-24,86,74,62,64,63,61,94,69,48,29.91,29.81,29.72,10,9,2,28,15,31,0.00,2,,168
2012-10-25,73,60,46,61,43,32,83,55,39,30.25,30.00,29.72,10,10,10,32,17,41,0.00,1,,20
2012-10-26,53,44,35,32,29,23,81,57,30,30.46,30.36,30.26,10,10,10,25,15,31,0.00,0,,16
2012-10-27,53,48,42,23,22,21,46,38,28,30.28,30.24,30.21,10,10,10,7,2,,0.00,0,,87
2012-10-28,62,47,32,30,26,21,75,48,26,30.32,30.26,30.19,10,10,10,12,4,10,0.00,0,,139
2012-10-29,69,52,35,32,31,30,81,51,25,30.29,30.21,30.11,10,10,10,16,7,22,0.00,0,,142
2012-10-30,78,60,41,37,34,32,70,44,20,30.11,30.02,29.93,10,10,7,9,6,,0.00,0,,178
2012-10-31,78,62,46,41,37,34,66,44,21,30.11,30.04,29.99,10,10,2,12,7,,0.00,0,,34